Sigfox identifier Datetime Temperature Humidity SNR
0038AE67 2018-10-09 09:30:54 20.5 39 17.6
0038AE67 2018-10-09 08:29:19 20.3 39 17.7
0038AE67 2018-10-09 07:27:44 20.3 39 18.5
0038AE67 2018-10-09 06:26:11 20.3 39 19
0038AE67 2018-10-09 05:24:40 20.3 39 19.4
0038AE67 2018-10-09 01:18:33 20.3 38 20.3
0038AE67 2018-10-09 00:17:02 20.3 38 20.2
0038AE67 2018-10-08 23:15:30 20.3 38 20.2
0038AE67 2018-10-08 22:13:58 20.3 38 20.3
0038AE67 2018-10-08 21:12:20 20.3 37 20.2
0038AE67 2018-10-08 20:10:41 20.3 37 20.4
0038AE67 2018-10-08 19:09:01 20.3 37 20.5
0038AE67 2018-10-08 18:07:23 20.2 36 20.5
0038AE67 2018-10-08 17:05:43 20.3 36 20.8
0038AE67 2018-10-08 16:04:03 20.2 35 21
0038AE67 2018-10-08 15:02:28 20.3 35 21.2
0038AE67 2018-10-08 14:00:48 20.3 34 21.2
0038AE67 2018-10-08 12:59:15 20.5 34 21.3
0038AE67 2018-10-08 11:57:36 20.7 33 21.2
0038AE67 2018-10-08 10:56:01 20.7 33 21.2
0038AE67 2018-10-08 09:54:23 20.5 32 21.2
0038AE67 2018-10-08 08:52:46 20.5 32 21.1
0038AE67 2018-10-08 07:51:09 20.5 33 21.3
0038AE67 2018-10-08 06:49:33 20.6 35 21.5
0038AE67 2018-10-08 05:47:58 20.6 35 21.1
0038AE67 2018-10-08 04:46:23 20.5 36 21.1
0038AE67 2018-10-08 03:44:45 20.5 36 20.9
0038AE67 2018-10-08 02:43:10 20.5 36 20.9
0038AE67 2018-10-08 01:41:35 20.6 37 20.7
0038AE67 2018-10-08 00:39:59 20.6 37 20.5
0038AE67 2018-10-07 23:38:24 20.7 38 20.6
0038AE67 2018-10-07 22:36:50 20.7 38 20.9
0038AE67 2018-10-07 21:35:13 20.7 38 21.2
0038AE67 2018-10-07 20:33:36 20.7 39 21
0038AE67 2018-10-07 19:32:00 20.7 39 21.1
0038AE67 2018-10-07 18:30:24 20.7 39 20.9
0038AE67 2018-10-07 17:28:48 20.7 38 20.9
0038AE67 2018-10-07 16:27:13 20.7 39 20.8
0038AE67 2018-10-07 15:25:38 20.7 38 20.9
0038AE67 2018-10-07 14:24:05 20.7 39 20.6
0038AE67 2018-10-07 13:22:34 20.7 39 20.6
0038AE67 2018-10-07 12:21:00 20.7 39 20.8
0038AE67 2018-10-07 11:19:27 20.7 39 20.9
0038AE67 2018-10-07 10:17:57 20.7 39 20.9
0038AE67 2018-10-07 09:16:21 20.7 39 21
0038AE67 2018-10-07 08:14:44 20.7 39 21.4
0038AE67 2018-10-07 07:13:09 20.7 40 21.4
0038AE67 2018-10-07 06:11:34 20.7 40 21.3
0038AE67 2018-10-07 05:09:56 20.7 40 21.3
0038AE67 2018-10-07 04:08:19 20.7 40 21.4
0038AE67 2018-10-07 03:06:44 20.7 40 21.4
0038AE67 2018-10-07 02:05:08 20.7 40 21.4
0038AE67 2018-10-07 01:03:34 20.7 40 21.1
0038AE67 2018-10-07 00:02:00 20.7 40 21.1
0038AE67 2018-10-06 23:00:28 20.8 40 21.2
0038AE67 2018-10-06 21:58:56 20.8 40 21.1
0038AE67 2018-10-06 20:57:21 20.9 40 21
0038AE67 2018-10-06 19:55:47 20.9 40 20.7
0038AE67 2018-10-06 18:54:13 20.9 41 20.8
0038AE67 2018-10-06 17:52:39 20.9 41 20.8
0038AE67 2018-10-06 16:51:07 21 41 20.9
0038AE67 2018-10-06 15:49:30 21 41 21
0038AE67 2018-10-06 14:47:52 20.9 41 21.2
0038AE67 2018-10-06 13:46:13 20.9 41 21.1
0038AE67 2018-10-06 12:44:37 20.9 41 21.2
0038AE67 2018-10-06 11:42:59 20.9 41 21.1
0038AE67 2018-10-06 10:41:22 20.9 41 20.9
0038AE67 2018-10-06 09:39:42 20.9 41 20.9
0038AE67 2018-10-06 08:38:03 21 41 20.8
0038AE67 2018-10-06 07:36:25 20.9 42 20.9
0038AE67 2018-10-06 06:34:49 21 42 20.4
0038AE67 2018-10-06 05:33:10 21 42 20
0038AE67 2018-10-06 04:31:33 21 43 19.8
0038AE67 2018-10-06 03:29:55 21 43 19.8
0038AE67 2018-10-06 02:28:14 21 43 19.4
0038AE67 2018-10-06 01:26:36 21 43 18.4
0038AE67 2018-10-06 00:24:59 21.1 44 18.8
0038AE67 2018-10-05 23:23:20 21.2 44 19.1
0038AE67 2018-10-05 22:21:40 21.2 44 19.6
0038AE67 2018-10-05 21:20:02 21.3 45 18.6
0038AE67 2018-10-05 20:18:22 21.4 45 19.4
0038AE67 2018-10-05 19:16:42 21.5 45 19.4
0038AE67 2018-10-05 18:15:05 21.8 44 21
0038AE67 2018-10-05 17:13:25 21.8 55 0